Regional Weather Roundup
Issued by NWS

Home | Current Version | Previous Version | Graphics & Text | Print | Product List | Glossary On
Versions: 1 2 3 4 5 6 7 8 9 10 11 12 13 14 15 16 17 18 19 20 21 22 23 24 25 26 27 28 29 30 31 32 33 34 35 36 37 38 39 40 41 42 43 44 45 46 47 48 49 50
000
ASUS45 KTFX 301119
RWRMT
MONTANA HOURLY WEATHER ROUNDUP
NATIONAL WEATHER SERVICE GREAT FALLS MT
519 AM MDT THU OCT 30 2014

NOTE: "FAIR" INDICATES FEW OR NO CLOUDS BELOW 12000 FEET WITH NO
SIGNIFICANT WEATHER AND/OR OBSTRUCTIONS TO VISIBILITY.

* THESE STATIONS ARE NOT UNDER NWS QUALITY CONTROL. THEY DO NOT
   REPORT WEATHER SUCH AS PRECIPITATION OR FOG.

MTZ001>007-043-301200-
WEST OF THE DIVIDE
CITY           SKY/WX    TMP DP  RH WIND       PRES   REMARKS
KALISPELL      FOG       39  39 100 CALM      30.25S VSB 1/2
MISSOULA       FOG       37  37 100 CALM      30.27F VSB 3
BUTTE          CLOUDY    32  28  85 CALM      30.29F
MULLAN PASS    FOG       34  34 100 SE8       30.21F VSB M1/4 WCI  27
* DEER LODGE   MOCLDY    32  28  85 N/A        N/A
* ESSEX        N/A       38  37  96 N/A        N/A
* HAMILTON APT CLOUDY    41  36  82 SE3        N/A
* LIBBY APT    PTCLDY    43  41  93 N/A        N/A
* LINCOLN      N/A       28  27  96 NW1        N/A
* LOOKOUT PASS N/A       39  39 100 S8G14      N/A   WCI  33
* POLSON       N/A       36  36 100 N/A        N/A
* RONAN APT    PTCLDY    30  28  92 N/A        N/A
* SEELEY LAKE  N/A       30  29  96 N2         N/A
* THOMP F APT  MOCLDY    40  27  60 N1G6       N/A
* YAAK HILL    N/A       42  40  93 N/A        N/A
$$

MTZ008-052>055-301200-
SOUTHWEST MONTANA
CITY           SKY/WX    TMP DP  RH WIND       PRES   REMARKS
BOZEMAN        MOCLDY    32  27  82 E5        30.29R WCI  27
DILLON         CLOUDY    36  28  73 S7        30.27F WCI  30
W YELLOWSTONE  PTCLDY    23  21  92 CALM      30.34S
* ENNIS APT    PTCLDY    36  27  70 NE5        N/A   WCI  32
* THREE FORKS  MOCLDY    30  30 100 N/A        N/A
* BOULDER HILL N/A       34  24  67 SW8        N/A   WCI  27
* RAYNOLDS PAS N/A       31  18  59 S7         N/A   WCI  24
* WHITEHALL    N/A       34  28  79 S2         N/A
* WISE RIVER   N/A       29  27  92 N/A        N/A
$$

MTZ009>010-012-014-046-048-049-054-301200-
EAST SLOPES AND CENTRAL MONTANA
CITY           SKY/WX    TMP DP  RH WIND       PRES   REMARKS
CUT BANK       CLEAR     34  28  79 NW7       30.21R WCI  28
GREAT FALLS    CLEAR     36  30  79 SW10      30.23S WCI  29
HELENA         MOCLDY    37  32  82 CALM      30.27S
MALMSTROM AFB  CLEAR     34  32  92 W6        30.25R WCI  29
* CONRAD       CLEAR     27  25  92 N/A        N/A
* DEARBORN     N/A       34  32  92 S1         N/A
* EAST GLACIER N/A       39  33  79 W14G20     N/A   WCI  31
* MONARCH      N/A       36  24  62 S7         N/A   WCI  30
* ROGERS PASS  N/A       35  32  89 NW4        N/A
* SAINT MARY   N/A       43  30  60 S7G15      N/A
* SWEET GRASS  N/A       38  30  73 SW10       N/A   WCI  31
* WHITE SULPH  N/A       28  23  81 E4         N/A
$$

MTZ011-013-016-021-035-040-045-047-050-051-301200-
NORTH CENTRAL MONTANA
CITY           SKY/WX    TMP DP  RH WIND       PRES   REMARKS
HAVRE          CLEAR     36  32  85 SW13      30.22R WCI  27
LEWISTOWN      CLEAR     32  27  82 SE6       30.26R WCI  26
* N BAR RANCH  CLEAR     34  27  76 NW5       30.27R WCI  29
* FORT BENTON  CLEAR     36  30  79 CALM      30.26R
* MALTA APT    CLEAR     34  28  79 NE9        N/A   WCI  27
* CHESTER      N/A       32  29  89 N/A        N/A
* DENTON       N/A       37  30  76 S8         N/A   WCI  31
* GEYSER       N/A       33  27  79 SW7        N/A   WCI  27
* JUDITH GAP   N/A       36  26  67 SE1        N/A
* LOMA         N/A       34  31  89 SW2        N/A
$$

MTZ017>020-022>027-061-062-301200-
NORTHEAST MONTANA
CITY           SKY/WX    TMP DP  RH WIND       PRES   REMARKS
GLASGOW        CLOUDY    34  30  85 N3        30.26R
GLENDIVE       MOCLDY    30  28  92 N8        30.26R WCI  22
JORDAN         CLEAR     27  25  92 CALM      30.23R
SIDNEY         CLOUDY    37  34  89 N6        30.28R WCI  32
WOLF POINT     CLOUDY    37  34  89 N3        30.27R
* BEAVER HILL  N/A       32  31  96 N/A        N/A
* CIRCLE       N/A       31  29  92 N/A        N/A
* LINDSAY DVD  N/A       32  32 100 VRB5       N/A   WCI  27
* NAVAJO       N/A       32  30  92 VRB11      N/A   WCI  23
* PLENTYWOOD A N/A       34  30  85 N11G18     N/A   WCI  26
* POPLAR APT   N/A       37  34  89 N/A        N/A
* SCOBEY APT   PTCLDY    34  27  76 N8         N/A   WCI  27
$$

MTZ028>042-056>058-301200-
SOUTHCENTRAL AND SOUTHEAST MONTANA
CITY           SKY/WX    TMP DP  RH WIND       PRES   REMARKS
BAKER          CLEAR     30  28  92 NW6       30.21R WCI  24
BILLINGS       CLEAR     37  27  67 S14       30.26R WCI  28
LIVINGSTON     PTCLDY    30  25  82 NW10      30.28S WCI  21
MILES CITY     CLEAR     32  28  85 NW6       30.22R WCI  26
* FORSYTH APT  CLEAR     39  30  70 W3         N/A
* LAUREL APT   CLEAR     36  25  64 SW7        N/A   WCI  30
* ROUNDUP APT  CLEAR     36  27  70 N/A        N/A
* ALZADA       N/A       35  29  79 W6         N/A   WCI  30
* HYSHAM       N/A       41  28  60 W3         N/A
* LAME DEER    N/A       40  29  65 W9         N/A   WCI  34
* REED POINT   N/A       28  27  96 N/A        N/A
* ROSCOE HILL  N/A       41  20  43 SE6        N/A
$$

REGIONAL REPORTS...DAKOTAS
CITY           SKY/WX    TMP DP  RH WIND       PRES   REMARKS
WILLISTON      CLOUDY    37  32  82 NW12      30.24R WCI  29
DICKINSON      FOG       36  34  92 N8        30.19R WCI  30
BEACH          N/A       32  32 100 N9        30.23R WCI  24
CROSBY         CLOUDY    36  36 100 N9        30.25R WCI  29
TIOGA          CLOUDY    32  32 100 N7        30.25R WCI  25
BISMARCK       PTCLDY    36  34  92 N8        30.15R WCI  30
GRAND FORKS    CLOUDY    36  32  85 N10       30.10R WCI  29
FARGO          FOG       41  37  86 CALM      30.03R
BUFFALO SD     CLEAR     37  30  76 NW12      30.12R WCI  29
RAPID CITY     CLEAR     37  30  76 SE3       30.18R
$$

REGIONAL REPORTS...WYOMING/IDAHO/WASHINGTON
CITY           SKY/WX    TMP DP  RH WIND       PRES   REMARKS
GILLETTE       CLEAR     37  27  67 W12       30.26R WCI  29
SHERIDAN       CLEAR     36  25  64 S6        30.28R WCI  31
CODY           PTCLDY    36  27  70 SE3       30.29R
YELLOWSTONE LA PTCLDY    25  23  92 CALM      30.38S
SALMON         CLOUDY    37  34  89 CALM      30.27F
MULLAN PASS    FOG       34  34 100 SE8       30.21S VSB M1/4 WCI  27
SAND POINT     CLOUDY    43  43 100 NE8       30.21F
SPOKANE        FOG       45  45 100 NE9       30.14F VSB 3
$$

REGIONAL REPORTS...ALBERTA
CITY           SKY/WX    TMP DP  RH WIND       PRES   REMARKS
CALGARY        FOG       27  25  92 SE6       30.19R VSB M1/4 WCI  20
LETHBRIDGE     HVY SNOW  27  27 100 NE8       30.21R VSB M1/4 WCI  19
MEDICINE HAT   FOG       30  30 100 NE10      30.26R VSB 1/2  WCI  21
EDMONTON       CLOUDY    32  30  92 SE12G17   30.22R WCI  23
WATERTON GATE  N/A       43  30  60 SW12G18    N/A
CARDSTON       N/A       27  25  92 SE7        N/A   WCI  19
MILK RIVER     N/A       30  28  92 NW5        N/A   WCI  25
$$

REGIONAL REPORTS...SASKATCHEWAN
CITY           SKY/WX    TMP DP  RH WIND       PRES   REMARKS
SWIFT CURRENT  FOG       32  30  92 NE7       30.28R WCI  25
MOOSE JAW      CLOUDY    32  30  92 N8        30.31R WCI  25
REGINA         CLOUDY    34  30  85 NE10      30.29R WCI  26
VAL MARIE      N/A       32  34 N/A NE6        N/A   WCI  26
ASSINIBOIA     N/A       32  30  92 NE8        N/A   WCI  25

$$




USA.gov is the U.S. government's official web portal to all federal, state and local government web resources and services.